Weather in Shozhma

Russia / Arkhangel'skaya Oblast'     61°51′40″N   40°13′24″E
temp.,
°C
wind,
m/s
gust,
m/s
humid.,
%
clouds,
%
prec.,
mm/h
press.,
hPa
HPBL,
m
9 may, sun
sun900:00+7sse41093100 1.8 10071199
03:00+6sse3896100 4.6 10061154
06:00+6sw0199100 4.9 100464
09:00+5wnw4696100 6.6 1005470
12:00+4w3792100 0.1 1009660
15:00+5wnw4782100 0.1 10121000
18:00+4nw4978100 0.0 10141184
21:00+2w1186100 0.0 101615
10 may, mon
mon1000:00+1wsw25909 0.0 101993
03:000wnw24850 0.0 102172
06:00+3w24720 0.0 1023131
09:00+9wsw23465 0.0 1024910
12:00+11sw343422 0.0 10251699
15:00+13sw3534100 0.0 10251875
18:00+12ssw474464 0.0 10251724
21:00+9sw51257100 0.0 1025834
11 may, tue
tue1100:00+8sw51363100 0.0 1025568
03:00+8ssw41371100 0.0 1026415
06:00+8ssw41374100 0.0 1026386
09:00+11sw41273100 0.0 1026498
12:00+14sw41170100 0.1 1026660
15:00+19wsw58545 0.1 10261236
18:00+20sw375722 0.0 10271219
21:00+13sw288710 0.0 1027146
12 may, wed
wed1200:00+11sw3108916 0.0 1028193
03:00+9sw399236 0.0 1029158
06:00+12sw278166 0.0 1030168
09:00+18sw245629 0.0 1029487
12:00+22sw23442 0.0 10281164
15:00+23ssw23380 0.0 10271503
18:00+22s23440 0.0 1026909
21:00+16sse22660 0.0 102611
13 may, thu
thu1300:00+14s23800 0.0 102751
03:00+12ssw23851 0.0 102745
06:00+14s25695 0.0 1026137
09:00+20s245295 0.0 1026625
12:00+23s344299 0.0 10242021
15:00+21sse2657100 0.0 1023338
18:00+18se226875 0.0 102135
21:00+16sse297719 0.1 1021201